Regional Weather Roundup
Issued by NWS Wakefield, VA

Home | Current Version | Previous Version | Text Only | Print | Product List | Glossary On
Versions: 1 2 3 4 5 6 7 8 9 10 11 12 13 14 15 16 17 18 19 20 21 22 23 24 25 26 27 28 29 30 31 32 33 34 35 36 37 38 39 40 41 42 43 44 45 46 47 48 49 50
000
ASUS41 KAKQ 031715
RWRAKQ

REGIONAL WEATHER ROUNDUP
NATIONAL WEATHER SERVICE WAKEFIELD VA
100 PM EDT THU SEP 03 2015

Note: "fair" indicates few or no clouds below 12,000 feet with no
significant weather and/or obstructions to visibility. * = Denotes
station may not report precipitation (e.g., rain,snow,etc.),
thunder or fog.

VAZ042-051-052>054-056-031800-
NORTHERN VIRGINIA

CITY           SKY/WX    TMP DP  RH WIND       PRES   REMARKS
WASH NATIONAL  MOSUNNY   90  69  50 CALM      29.90F
DULLES         MOSUNNY   90  67  46 NW12      29.92F
FORT BELVOIR   MOSUNNY   90  69  48 W1        29.90F
QUANTICO       MOSUNNY   87  70  56 S5        29.91F
FREDERICKSBRG* SUNNY     92  68  44 N6        29.90F HX  96
STAFFORD*      SUNNY     90  65  44 N6        29.96F
WARRENTON      SUNNY     92  69  47 N9        29.92F HX  97
CULPEPER*      SUNNY     88  69  52 NW6       29.93F
MANASSAS*      MOSUNNY   90  68  48 NW6       29.92F
LEESBURG*      SUNNY     90  72  55 N7        29.94S HX  96
WINCHESTER     MOSUNNY   88  64  45 NW8       29.95F
FRONT ROYAL*   FAIR      86  68  54 CALM      29.94F
LURAY*         FAIR      88  66  48 E6        29.96F
$$

VAZ048-049-060>072-079>083-031800-
CENTRAL AND SOUTH CENTRAL VIRGINIA

CITY           SKY/WX    TMP DP  RH WIND       PRES   REMARKS
RICHMOND       MOSUNNY   90  68  48 N6        29.92F
CHESTERFIELD*  FAIR      90  64  43 W5        29.94F
PETERSBURG*    SUNNY     88  74  62 NW5       29.94F HX  97
HANOVER        SUNNY     89  70  53 VRB3      29.94F
TAPPAHANNOCK*  SUNNY     90  63  39 CALM      29.92F
QUINTON*       FAIR      87  72  60 CALM      29.92S
CHARLOTTSVILLE TSTM      79  65  62 N21G32    29.96S
GORDONSVILLE*  FAIR      90  68  48 CALM      29.93F
ORANGE*        SUNNY     91  64  40 N3        29.94F
LOUISA*        MOSUNNY   91  66  43 W6        29.93F
BUMPASS*       FAIR      87  69  55 CALM      29.94S
FARMVILLE*     MOSUNNY   92  64  40 E7        29.94F
CREWE*         FAIR     N/A N/A N/A CALM      29.95F
FORT PICKETT*  FAIR      88  68  52 NE6       29.95F
CHASE CITY*    FAIR      89  72  56 CALM      29.96F HX  95
CLARKSVILLE*   FAIR      84  70  61 CALM      29.96F
SOUTH HILL*    SUNNY     85  70  60 NE3       30.01F
LAWRENCEVILLE* FAIR      86  72  62 CALM      29.94F
EMPORIA*       SUNNY     86  70  58 SW3       29.94F
$$

VAZ088>098-031800-
SOUTHEAST VIRGINIA

CITY           SKY/WX    TMP DP  RH WIND       PRES   REMARKS
NORFOLK        SUNNY     86  69  56 NE6       29.91S
VIRGINIA BEACH MOSUNNY   92  68  45 NW7       29.90F HX  96
NORFOLK NAVAL  MOSUNNY   89  70  53 N6        29.92F
WEST POINT*    SUNNY     91  68  47 W7        29.92F
SALUDA*        FAIR      86  72  63 CALM      29.91S
NEWPORT NEWS   SUNNY     90  68  48 N5        29.91F
LANGLEY AFB    SUNNY     88  69  53 NE5       29.90F
FORT EUSTIS    SUNNY     87  69  55 W6        29.90F
WILLIAMSBURG*  SUNNY     93  73  52 NW5       29.92F HX 102
HR EXEC AP*      N/A     88  70  55 W5        29.93S
FRANKLIN*      SUNNY     88  69  53 W6        29.92F
WAKEFIELD      SUNNY     90  67  46 CALM      29.92F
$$

VAZ020-022-025-037-045-031800-
WEST CENTRAL AND SOUTHWEST VIRGINIA

CITY           SKY/WX    TMP DP  RH WIND       PRES   REMARKS
STAUNTON*      SUNNY     89  64  41 SW3       30.00F
WAYNESBORO*    FAIR      87  64  45 NE8       30.01F
HOT SPRINGS VA SUNNY     76  64  65 NW7       30.14F
LYNCHBURG      MOSUNNY   87  64  46 VRB3      29.99F
DANVILLE       MOSUNNY   89  67  47 CALM      29.97F
SOUTH BOSTON*  FAIR      87  66  50 SE3       29.96F
MARTINSVILLE   PTSUNNY   89  64  43 CALM      30.02F
ROANOKE        MOSUNNY   88  63  43 N5        30.02F
BLACKSBURG     MOSUNNY   83  66  55 NW13      30.10F
DUBLIN*          N/A     82  66  59 N7        30.09F
MARION*        MOSUNNY   80  63  57 N3        30.13F
HILLSVILLE*    PTSUNNY   78  65  64 N8        30.10F
RICHLANDS*     PTSUNNY   79  29  16 NW8       30.13F
WISE*          MOSUNNY   79  63  57 N9        30.15F
ABINGDON*      MOSUNNY   83  63  50 NE6       30.09F
$$

MDZ021>025-VAZ099-100-031800-
SOUTHERN MARYLAND AND THE DELMARVA PENINSULA

CITY           SKY/WX    TMP DP  RH WIND       PRES   REMARKS
PATUXENT RIVER MOSUNNY   89  70  53 CALM      29.90F
BAY BRIDGE APT   N/A     86  63  45 W3        29.90F
LEONARDTOWN    NOT AVBL
DOVER          SUNNY     89  69  50 VRB1      29.87F
GEORGETOWN     PTSUNNY   91  66  43 VRB5      29.89F
EASTON         MOSUNNY   90  72  55 NW7       29.93F HX  96
CAMBRIDGE      SUNNY     91  68  46 CALM      29.89S HX  95
SALISBURY      SUNNY     90  68  48 NW3       29.88F
OCEAN CITY     SUNNY     87  66  49 E9        29.89S
WALLOPS ISLAND MOSUNNY   88  69  53 SE8       29.89F
ACCOMACK*      SUNNY     86  70  58 NW3       29.90F
$$

NCZ012>017-030>032-031800-
NORTH CENTRAL AND EASTERN NORTH CAROLINA

CITY           SKY/WX    TMP DP  RH WIND       PRES   REMARKS
ROANOKE RAPIDS FAIR      86  64  48 N5        29.94F
RALEIGH        PTSUNNY   84  68  58 CALM      29.97F
ELIZABETH CITY SUNNY     86  70  58 NE5       29.92F
AHOSKIE*       SUNNY     83  70  64 NE3       29.94F
EDENTON*       SUNNY     80  71  73 SW5       29.94S
CURRITUCK*     SUNNY     86  68  54 CALM      29.92F
KILL DEVIL HLS SUNNY     87  70  57 CALM      29.92F
MANTEO         SUNNY     83  67  59 NW3       29.94F
CAPE HATTERAS  SUNNY     80  71  74 W6        29.94F
TARBORO*       FAIR      85  72  63 CALM      29.95F
GOLDSBORO      MOSUNNY   85  71  61 NW6       29.93F
WASHINGTON     SUNNY     81  72  73 NW3       29.94F
GREENVILLE     MOSUNNY   82  70  65 CALM      29.97F
NEW BERN       PTSUNNY   86  71  60 W5        29.95F
WILMINGTON     MOSUNNY   89  72  56 VRB7      29.93F HX  96
$$

VAZ048-031800-
ELSEWHERE

CITY           SKY/WX    TMP DP  RH WIND       PRES   REMARKS
HARRISBURG PA  MOSUNNY   89  66  46 W10       29.90F
BALTIMORE      MOSUNNY   90  68  48 VRB5      29.89F
ANNAPOLIS      SUNNY     86  71  60 N5        29.89F
ANDREWS AFB    MOSUNNY   91  68  46 VRB6      29.90F
PHILADELPHIA   MOSUNNY   92  64  39 N7        29.87F
HENDERSON NC   PTSUNNY   83  63  50 NE3       29.97F
GREENSBORO     CLOUDY    86  64  47 N7        29.99F
ROCKY MOUNT    MOSUNNY   85  69  58 N5        29.95F
$$

VAZ100-031800-
MARINE

STATION/POSITION TIME  TEMP    WIND        PRES    WAVE   SWELL
                       AIR SEA DIR/SP/G            HT/PER HT/PER
                 (UTC) (F)     (DEG/KT/KT) (MB)    (FT/S) (FT/S)
BRANDYWINE LGT   1600   77 77  330/  4/  6   N/A
CAPE MAY NJ      1600   81 80  290/  5/  8   N/A
LEWES DE         1600   78 76  350/  2/  4   N/A
15NM E FENWICK I 1650   79 80  340/  4/  6 1012.1F   1/13   2/13
OCEAN-CITY-INLET 1600   83 77   70/  7/  9   N/A
THOMAS POINT MD  1700   81 81   80/  4/  4 1012.9
GOOSES REEF MD   1700   81 81   40/  4/  6 1013.6F
COVE POINT MD    1600   79     350/  6/  8   N/A
SOLOMONS ISLAND  1600      81                N/A
BISHOPS HEAD MD  1600   80 81  260/  7/  8   N/A
PINEY POINT MD   1605          300/  6/  6   N/A
POTOMAC MD       1700   81 82  270/  4/  6 1011.6F   0
CAMBRIDGE MD     1600   84 81  320/  3/  5   N/A
LEWISETTA VA     1600   82 81   40/  4/  5   N/A
RAPPAHANNOCK LGT 1600          330/  7/  7   N/A
STINGRAY PT      1700   82 82   CALM  /  2 1013.4F   0
YORK RVR RNG VA  1600   80      10/  5/  6   N/A
JAMESTOWN VA     1700   83 82  280/  6/  6   N/A
DOMINION TERM VA 1600   80     300/  6/  6   N/A
KIPTOPEKE VA     1600      80  320/  8/  9   N/A
CHES BAY BRIDGE  1600   81 79  290/  4/  5   N/A
CAPE HENRY VA    1600   80     320/  6/  9   N/A
CHESAPEAKE LGHT  1600   80     290/  6/  7 1013.9R
WILLOUBY STN VA  1600   79     230/  7/  7   N/A
CAPE HENRY BUOY  1628      80                N/A     1/13
1ST LANDING BUOY 1700      80              1012.7F   1
CAPE CHARLES BUO 1626      79                N/A     1/13   2/13
OFFSHORE WE BUOY 1611      80                N/A     2/ 3   2/ 9
64NM E OF VA BCH 1650   79 79  290/  8/  8 1012.7F   2/ 4   2/ 9
DUCK PIER NC     1600   80 80  350/  4/  5   N/A
44100 DUCK FRF   1624      80                N/A     1/13
44056 DUCK FRF   1611      81                N/A     2/13
OREGON INLET NC  1600   81 82   10/  3/  8   N/A
HATTERAS NC      1600   78 82  310/  5/  6   N/A
DIAMOND SHLS NC  1650   81 86  340/  4/  6 1013.9S   1/10   2/10
CAPE LOOKOUT NC  1700   80     120/  3/  4 1013.6F
$$



USA.gov is the U.S. government's official web portal to all federal, state and local government web resources and services.